Location: Nairn
(57.5833°N, 3.8667°W)
Time: 10:01:32
(UTC+00:00)

N. Korean satellite - Pass Details

Date: 03 November 2020
Orbit: 452 x 504 km, 97.2° (Epoch: 25 November)

Event Time Altitude Azimuth Distance (km) Brightness Sun altitude
Rises 05:24:48 0° 20° (NNE) 2,484 10.4 -17.4°
Reaches altitude 10° 05:27:00 10° 31° (NNE) 1,604 9.6 -17.1°
Maximum altitude 05:30:07 32° 96° (E) 810 8.4 -16.7°
Drops below altitude 10° 05:33:13 10° 162° (SSE) 1,595 9.4 -16.2°
Sets 05:35:24 0° 172° (S) 2,468 10.3 -15.9°
